Weather in Siegen

Germany     50°52′13″N   8°00′50″E
temp.,
°C
wind,
m/s
gust,
m/s
humid.,
%
clouds,
%
prec.,
mm/h
press.,
hPa
HPBL,
m
23 september, thu
thu2323:00+10s009263 0.0 102610
02:00+9s119211 0.0 102510
05:00+9s229315 0.0 102317
08:00+9sw118821 0.0 102219
11:00+16wsw495918 0.0 1020612
14:00+19w594961 0.0 10181073
17:00+18w51057100 0.0 10171025
20:00+14w41180100 0.0 1017654
24 september, fri
fri2423:00+13wnw4109142 0.1 1018794
02:00+12w3109880 0.1 1018628
05:00+12w3998100 0.0 1018520
08:00+12wsw279799 0.0 1018344
11:00+15w468163 0.0 1018629
14:00+18w4666100 0.0 10171100
17:00+18w366969 0.0 1016944
20:00+13w22941 0.0 101716
25 september, sat
sat2523:00+12wsw11960 0.0 101816
02:00+11sw11970 0.0 101716
05:00+11ssw11970 0.0 101711
08:00+11s11970 0.0 101727
11:00+18sw12690 0.0 1017513
14:00+21sw23505 0.0 10161020
17:00+21sw12495 0.0 1015995
20:00+14ese21765 0.0 101611
26 september, sun
sun2623:00+12ese22796 0.0 101715
02:00+12ese227692 0.0 101615
05:00+13ese227789 0.0 101535
08:00+13ese228187 0.0 101648
11:00+19sse24655 0.0 1015467
14:00+22ssw346229 0.0 10151084
17:00+18sw3792100 2.1 1015284
20:00+15ssw229694 3.3 101627
27 september, mon
mon2723:00+14sw259657 0.0 1017109
02:00+13s2296100 0.0 101736
05:00+13s279716 0.0 1017170
08:00+12ssw299739 0.0 1017247
11:00+17sw4108495 0.2 1018578
14:00+18wsw587945 1.6 10181121
17:00+15w5988100 1.4 1020759
20:00+11wnw399769 1.6 1024498